Weather History for KGCM - September, 2014

Change the Weather History Date:

Wednesday, September 3, 2014

  Actual Average (KTUL) Record (KTUL)
Temperature  
Mean Temperature 78 °F 78 °F  
Max Temperature 89 °F 89 °F 109 °F (1939)
Min Temperature 68 °F 67 °F 47 °F (1974)
Degree Days  
Heating Degree Days 0 0  
Month to date heating degree days 0  
Since 1 July heating degree days 0  
Cooling Degree Days 14 13  
Month to date cooling degree days 41  
Year to date cooling degree days 1742  
Growing Degree Days 28 (Base 50)    
Moisture  
Dew Point 69 °F    
Average Humidity 74    
Maximum Humidity 94    
Minimum Humidity 49    
Precipitation  
Precipitation 0.00 in 0.13 in 3.27 in (1962)
Month to date precipitation 0.40  
Year to date precipitation 27.88  
Sea Level Pressure  
Sea Level Pressure 29.97 in    
Wind  
Wind Speed 9 mph (SSE)    
Max Wind Speed 21 mph    
Max Gust Speed 26 mph    
Visibility 10 miles    
Events      
T = Trace of Precipitation, MM = Missing Value Source: NWS Daily Summary

Daily Weather History Graph

Daily Weather History Graph

Search for Another Location

Airport or City:

Trip Planner

Search our weather history database for the weather conditions in past years. The results will help you decide how hot, cold, wet, or windy it might be!

Date:

Astronomy

Sep. 03, 2014 Rise Set
Actual Time 6:55 AM CDT 7:46 PM CDT
Civil Twilight 6:28 AM CDT 8:12 PM CDT
Nautical Twilight 5:57 AM CDT 8:43 PM CDT
Astronomical Twilight 5:25 AM CDT 9:15 PM CDT
Moon 3:24 PM CDT (9/3) 12:55 AM CDT (9/3)
Length of Visible Light 13h 44m
Length of Day
12h 51m
Waxing Gibbous, 64% of the Moon is Illuminated
Sep 3
Waxing Gibbous
Sep 8
Full
Sep 15
Last Quarter
Sep 24
New
Oct 1
First Quarter

Hourly Weather History & Observations

Time (CDT) Temp. Heat Index Dew Point Humidity Pressure Visibility Wind Dir Wind Speed Gust Speed Precip Events Conditions
12:15 AM 69.8 °F - 64.4 °F 83% 29.99 in 10.0 mi ESE 8.1 mph - N/A   Clear
12:35 AM 69.8 °F - 64.4 °F 83% 29.99 in 10.0 mi ESE 8.1 mph - N/A   Clear
12:55 AM 69.8 °F - 64.4 °F 83% 30.00 in 10.0 mi ESE 6.9 mph - N/A   Clear
1:15 AM 69.8 °F - 64.4 °F 83% 30.00 in 10.0 mi SE 6.9 mph - N/A   Clear
1:35 AM 69.8 °F - 64.4 °F 83% 29.99 in 10.0 mi SE 6.9 mph - N/A   Clear
1:55 AM 69.8 °F - 64.4 °F 83% 30.00 in 10.0 mi ESE 5.8 mph - N/A   Clear
2:15 AM 68.0 °F - 64.4 °F 88% 29.99 in 10.0 mi SE 5.8 mph - N/A   Clear
2:35 AM 68.0 °F - 64.4 °F 88% 29.98 in 10.0 mi SSE 6.9 mph - N/A   Clear
2:55 AM 69.8 °F - 64.4 °F 83% 29.98 in 10.0 mi SSE 8.1 mph - N/A   Clear
3:15 AM 69.8 °F - 64.4 °F 83% 29.98 in 10.0 mi SE 6.9 mph - N/A   Clear
3:35 AM 69.8 °F - 64.4 °F 83% 29.98 in 10.0 mi SE 5.8 mph - N/A   Clear
3:55 AM 68.0 °F - 64.4 °F 88% 29.97 in 10.0 mi SSE 4.6 mph - N/A   Clear
4:15 AM 68.0 °F - 64.4 °F 88% 29.99 in 10.0 mi Calm Calm - N/A   Clear
4:35 AM 68.0 °F - 64.4 °F 88% 30.00 in 10.0 mi ESE 3.5 mph - N/A   Clear
4:55 AM 68.0 °F - 64.4 °F 88% 30.00 in 10.0 mi SE 5.8 mph - N/A   Clear
5:15 AM 69.8 °F - 64.4 °F 83% 30.00 in 10.0 mi SE 6.9 mph - N/A   Clear
5:35 AM 68.0 °F - 64.4 °F 88% 30.00 in 10.0 mi SE 8.1 mph - N/A   Clear
5:55 AM 69.8 °F - 64.4 °F 83% 29.98 in 10.0 mi SSE 8.1 mph - N/A   Clear
6:15 AM 69.8 °F - 64.4 °F 83% 29.99 in 10.0 mi SSE 8.1 mph - N/A   Clear
6:35 AM 69.8 °F - 64.4 °F 83% 29.99 in 10.0 mi SSE 5.8 mph - N/A   Clear
6:55 AM 69.8 °F - 64.4 °F 83% 29.99 in 10.0 mi SE 6.9 mph - N/A   Clear
7:15 AM 69.8 °F - 66.2 °F 88% 29.99 in 10.0 mi SSE 8.1 mph - N/A   Clear
7:35 AM 69.8 °F - 66.2 °F 88% 29.99 in 10.0 mi South 8.1 mph - N/A   Clear
7:55 AM 69.8 °F - 68.0 °F 94% 29.99 in 10.0 mi SSE 10.4 mph - N/A   Clear
8:15 AM 71.6 °F - 68.0 °F 88% 29.99 in 10.0 mi SSE 10.4 mph 16.1 mph N/A   Clear
8:35 AM 73.4 °F - 69.8 °F 88% 30.00 in 10.0 mi SSE 10.4 mph - N/A   Clear
8:55 AM 75.2 °F - 69.8 °F 83% 30.00 in 10.0 mi South 12.7 mph 18.4 mph N/A   Clear
9:15 AM 77.0 °F - 69.8 °F 78% 30.01 in 10.0 mi South 11.5 mph - N/A   Clear
9:35 AM 77.0 °F - 69.8 °F 78% 30.01 in 10.0 mi South 12.7 mph - N/A   Clear
9:55 AM 78.8 °F - 71.6 °F 78% 30.01 in 10.0 mi South 12.7 mph 18.4 mph N/A   Clear
10:15 AM 80.6 °F 84.6 °F 71.6 °F 74% 30.02 in 10.0 mi South 11.5 mph - N/A   Clear
10:35 AM 80.6 °F 84.6 °F 71.6 °F 74% 30.02 in 10.0 mi SSW 11.5 mph - N/A   Clear
10:55 AM 80.6 °F 84.6 °F 71.6 °F 74% 30.03 in 10.0 mi South 11.5 mph - N/A   Clear
11:35 AM 82.4 °F 87.2 °F 71.6 °F 70% 30.03 in 10.0 mi South 13.8 mph 17.3 mph N/A   Scattered Clouds
11:55 AM 82.4 °F 87.2 °F 71.6 °F 70% 30.02 in 10.0 mi SSE 12.7 mph - N/A   Scattered Clouds
12:15 PM 84.2 °F 90.9 °F 73.4 °F 70% 30.02 in 10.0 mi SSE 13.8 mph 17.3 mph N/A   Scattered Clouds
12:35 PM 86.0 °F 93.4 °F 73.4 °F 66% 30.01 in 10.0 mi South 11.5 mph - N/A   Clear
12:55 PM 86.0 °F 93.4 °F 73.4 °F 66% 30.00 in 10.0 mi South 11.5 mph 19.6 mph N/A   Clear
1:15 PM 86.0 °F 93.4 °F 73.4 °F 66% 30.00 in 10.0 mi SSE 16.1 mph 19.6 mph N/A   Clear
1:35 PM 87.8 °F 95.6 °F 73.4 °F 62% 29.99 in 10.0 mi South 16.1 mph 24.2 mph N/A   Clear
1:55 PM 87.8 °F 95.6 °F 73.4 °F 62% 29.99 in 10.0 mi SSE 13.8 mph 20.7 mph N/A   Clear
2:15 PM 87.8 °F 95.6 °F 73.4 °F 62% 29.99 in 10.0 mi SSE 13.8 mph 20.7 mph N/A   Clear
2:35 PM 87.8 °F 93.8 °F 71.6 °F 58% 29.98 in 10.0 mi SSE 16.1 mph 19.6 mph N/A   Clear
2:55 PM 87.8 °F 93.8 °F 71.6 °F 58% 29.97 in 10.0 mi South 16.1 mph 23.0 mph N/A   Scattered Clouds
3:15 PM 87.8 °F 93.8 °F 71.6 °F 58% 29.96 in 10.0 mi South 15.0 mph - N/A   Clear
3:35 PM 89.6 °F 96.2 °F 71.6 °F 55% 29.95 in 10.0 mi South 19.6 mph - N/A   Clear
3:55 PM 89.6 °F 96.2 °F 71.6 °F 55% 29.93 in 10.0 mi South 16.1 mph 20.7 mph N/A   Clear
4:15 PM 89.6 °F 94.7 °F 69.8 °F 52% 29.93 in 10.0 mi South 19.6 mph 26.5 mph N/A   Clear
4:35 PM 89.6 °F 93.4 °F 68.0 °F 49% 29.93 in 10.0 mi South 20.7 mph 25.3 mph N/A   Clear
4:55 PM 89.6 °F 94.7 °F 69.8 °F 52% 29.93 in 10.0 mi South 15.0 mph 24.2 mph N/A   Clear
5:15 PM 89.6 °F 94.7 °F 69.8 °F 52% 29.92 in 10.0 mi South 18.4 mph 26.5 mph N/A   Clear
5:35 PM 89.6 °F 94.7 °F 69.8 °F 52% 29.91 in 10.0 mi South 16.1 mph 25.3 mph N/A   Clear
5:55 PM 89.6 °F 94.7 °F 69.8 °F 52% 29.92 in 10.0 mi South 18.4 mph 23.0 mph N/A   Clear
6:15 PM 89.6 °F 94.7 °F 69.8 °F 52% 29.92 in 10.0 mi South 13.8 mph - N/A   Clear
6:55 PM 87.8 °F 92.6 °F 69.8 °F 55% 29.92 in 10.0 mi South 10.4 mph 19.6 mph N/A   Clear
7:15 PM 86.0 °F 90.4 °F 69.8 °F 58% 29.92 in 10.0 mi South 9.2 mph - N/A   Clear
7:35 PM 84.2 °F 89.6 °F 71.6 °F 66% 29.92 in 10.0 mi South 8.1 mph - N/A   Clear
7:55 PM 82.4 °F 87.2 °F 71.6 °F 70% 29.92 in 10.0 mi South 8.1 mph - N/A   Clear
8:15 PM 82.4 °F 87.2 °F 71.6 °F 70% 29.92 in 10.0 mi SSE 6.9 mph - N/A   Clear
8:35 PM 80.6 °F 84.6 °F 71.6 °F 74% 29.92 in 10.0 mi SSE 6.9 mph - N/A   Clear
8:55 PM 80.6 °F 84.6 °F 71.6 °F 74% 29.93 in 10.0 mi SSE 6.9 mph - N/A   Clear
9:15 PM 80.6 °F 84.6 °F 71.6 °F 74% 29.94 in 10.0 mi SSE 6.9 mph - N/A   Clear
9:35 PM 78.8 °F - 71.6 °F 78% 29.94 in 10.0 mi SSE 6.9 mph - N/A   Clear
9:55 PM 78.8 °F - 71.6 °F 78% 29.95 in 10.0 mi SSE 9.2 mph - N/A   Clear
10:15 PM 78.8 °F - 71.6 °F 78% 29.95 in 10.0 mi South 11.5 mph - N/A   Clear
10:55 PM 78.8 °F - 71.6 °F 78% 29.95 in 10.0 mi SSE 8.1 mph - N/A   Clear
11:15 PM 78.8 °F - 71.6 °F 78% 29.95 in 10.0 mi South 8.1 mph - N/A   Clear
11:35 PM 78.8 °F - 69.8 °F 74% 29.95 in 10.0 mi SSE 9.2 mph - N/A   Clear
11:55 PM 78.8 °F - 69.8 °F 74% 29.95 in 10.0 mi South 10.4 mph - N/A   Clear